This demonstration page uses our WeatherBlox Daily Observations layout. Learn more.

Left ArrowRight Arrow

Hourly Observations for October 22, 2022

Temp ( °F °C ) Dew Point ( °F °C ) Humidity (%) Winds ( mph kmh ) Pressure ( in mb ) Visibility ( mi km ) Precip ( " mm )
12:53 am 00:53 Clear 72 22.2 50 10 46 46 SW 10 17 29.65 1004 10 16 0.00 0.00
1:53 am 01:53 Clear 71 21.7 50 10 47 47 SW 16 26 29.61 1003 10 16 0.00 0.00
2:53 am 02:53 Clear 70 21.1 50 10 49 49 SW 13 20 29.62 1003 10 16 0.00 0.00
3:53 am 03:53 Partly Cloudy 69 20.6 47 8.3 45 45 WSW 10 17 29.63 1003 10 16 0.00 0.00
4:53 am 04:53 Clear 67 19.4 46 7.8 47 47 W 9 15 29.63 1004 10 16 0.00 0.00
5:53 am 05:53 Partly Cloudy 65 18.3 43 6.1 45 45 W 5 7 29.66 1004 10 16 0.00 0.00
6:53 am 06:53 Clear 65 18.3 35 1.7 33 33 W 12 19 29.68 1005 10 16 0.00 0.00
7:53 am 07:53 Sunny 64 17.8 34 1.1 32 32 W 10 17 29.70 1006 10 16 0.00 0.00
8:53 am 08:53 Sunny 65 18.3 35 1.7 33 33 NW 15 24 29.73 1007 10 16 0.00 0.00
9:53 am 09:53 Sunny 66 18.9 35 1.7 32 32 WNW 12 19 29.75 1007 10 16 0.00 0.00
10:53 am 10:53 Sunny 68 20 32 0 26 26 NNW 9 15 29.75 1007 10 16 0.00 0.00
11:53 am 11:53 Sunny 70 21.1 27 -2.8 20 20 N 10 17 29.74 1007 10 16 0.00 0.00
12:53 pm 12:53 Sunny 71 21.7 24 -4.4 17 17 N 10 17 29.74 1007 10 16 0.00 0.00
1:53 pm 13:53 Sunny 72 22.2 21 -6.1 14 14 N 14 22 29.71 1006 10 16 0.00 0.00
2:53 pm 14:53 Partly Cloudy 72 22.2 23 -5 16 16 NW 10 17 29.70 1006 10 16 0.00 0.00
3:53 pm 15:53 Mostly Sunny 70 21.1 21 -6.1 15 15 NNW 8 13 29.69 1006 10 16 0.00 0.00
4:53 pm 16:53 Mostly Sunny 71 21.7 22 -5.6 16 16 NNW 12 19 29.70 1006 10 16 0.00 0.00
5:53 pm 17:53 Mostly Sunny 67 19.4 30 -1.1 25 25 WNW 10 17 29.72 1006 10 16 0.00 0.00
6:53 pm 18:53 Clear 62 16.7 34 1.1 35 35 NW 10 17 29.75 1007 10 16 0.00 0.00
7:53 pm 19:53 Clear 60 15.6 34 1.1 37 37 WNW 12 19 29.78 1008 10 16 0.00 0.00
8:53 pm 20:53 Clear 59 15 34 1.1 39 39 NW 9 15 29.80 1009 10 16 0.00 0.00
9:53 pm 21:53 Clear 57 13.9 34 1.1 42 42 NW 6 9 29.82 1010 10 16 0.00 0.00

Powered by AerisWeather